Date String (YYYY-MM-DD hh:mm:ss) UTC,Instrument flags,Ambient pressure (hPa),Sample flow (lpm),Bypass flow (lpm),Sample temperature (°C),Ambient temperature (°C),ASC tube jacket temperature (°C),LED temperature (°C),Box temperature (°C),Sample RH (%),Span deviation,Mass concentration (μg/m³),Mass concentration (μg/m³),Mass concentration (μg/m³)
DateTimeUTC,F1_M11,P_M11,Q1_M11,Q2_M11,T1_M11,T2_M11,T3_M11,T4_M11,T5_M11,U1_M11,ZSPAN_M11,X0_M11,X2_M11,X1_M11
2022-03-22 16:00:00,,0828.8,5.00,0.00,21.9,23.1,00.0,30.8,23.8,08.4,0000.0,0002.61,0000.71,0000.50
2022-03-22 16:01:00,,0828.7,5.01,0.00,21.9,22.9,00.0,30.8,23.8,08.5,0000.0,0002.48,0000.68,0000.49
2022-03-22 16:02:00,,0828.8,5.00,0.00,21.9,22.5,00.0,30.9,23.7,08.4,0000.0,0002.01,0000.68,0000.47
2022-03-22 16:03:00,,0828.6,4.99,0.00,21.9,22.1,00.0,30.9,23.6,08.5,0000.0,0001.92,0000.70,0000.48
2022-03-22 16:04:00,,0828.7,4.99,0.00,21.8,21.8,00.0,30.9,23.4,08.4,0000.0,0001.89,0000.70,0000.48
2022-03-22 16:05:00,,0828.6,5.01,0.00,21.8,21.6,00.0,30.9,23.3,08.5,0000.0,0001.84,0000.66,0000.47
2022-03-22 16:06:00,,0828.7,4.99,0.00,21.7,21.3,00.0,30.8,23.3,08.5,0000.0,0001.80,0000.64,0000.47
2022-03-22 16:07:00,,0828.6,5.01,0.00,21.7,21.2,00.0,30.8,23.2,08.6,0000.0,0001.83,0000.67,0000.48
2022-03-22 16:08:00,,0828.7,5.00,0.00,21.6,21.0,00.0,30.8,23.2,08.7,0000.0,0001.84,0000.67,0000.48
2022-03-22 16:09:00,,0828.7,4.99,0.00,21.6,20.9,00.0,30.8,23.2,08.6,0000.0,0001.49,0000.66,0000.47
2022-03-22 16:10:00,,0829.0,5.00,0.00,21.6,20.8,00.0,30.8,23.1,08.5,0000.0,0001.10,0000.68,0000.47
2022-03-22 16:11:00,,0828.9,5.00,0.00,21.5,20.7,00.0,30.7,23.0,08.6,0000.0,0001.14,0000.69,0000.47
2022-03-22 16:12:00,,0828.6,4.99,0.00,21.5,20.7,00.0,30.7,23.0,08.5,0000.0,0001.14,0000.68,0000.47
2022-03-22 16:13:00,,0828.6,5.01,0.00,21.4,20.5,00.0,30.7,22.9,08.5,0000.0,0001.13,0000.68,0000.47
2022-03-22 16:14:00,,0828.6,4.99,0.00,21.5,21.2,00.0,30.7,23.1,08.7,0000.0,0001.09,0000.65,0000.46
2022-03-22 16:15:00,,0828.6,5.01,0.00,21.7,22.4,00.0,30.7,23.5,08.7,0000.0,0001.03,0000.62,0000.45
2022-03-22 16:16:00,,0828.8,5.01,0.00,21.8,23.2,00.0,30.8,23.8,08.4,0000.0,0001.16,0000.63,0000.45
2022-03-22 16:17:00,,0828.6,5.00,0.00,21.9,23.0,00.0,30.8,23.8,08.4,0000.0,0001.21,0000.65,0000.44
2022-03-22 16:18:00,,0828.6,5.00,0.00,21.9,22.6,00.0,30.8,23.7,08.3,0000.0,0001.21,0000.63,0000.43
2022-03-22 16:19:00,,0828.6,5.00,0.00,21.8,22.2,00.0,30.8,23.5,08.4,0000.0,0001.50,0000.65,0000.43
2022-03-22 16:20:00,,0828.8,4.99,0.00,21.8,21.8,00.0,30.8,23.4,08.5,0000.0,0001.46,0000.63,0000.42
2022-03-22 16:21:00,,0828.7,5.01,0.00,21.8,21.6,00.0,30.8,23.3,08.7,0000.0,0001.45,0000.64,0000.42
2022-03-22 16:22:00,,0828.7,4.99,0.00,21.7,21.4,00.0,30.8,23.2,08.6,0000.0,0001.44,0000.65,0000.42
2022-03-22 16:23:00,,0828.9,5.01,0.00,21.6,21.1,00.0,30.8,23.1,08.5,0000.0,0001.62,0000.67,0000.43
2022-03-22 16:24:00,,0828.7,5.00,0.00,21.6,21.0,00.0,30.8,23.1,08.4,0000.0,0001.64,0000.68,0000.43
2022-03-22 16:25:00,,0828.6,5.00,0.00,21.5,20.9,00.0,30.8,23.0,08.4,0000.0,0001.65,0000.68,0000.43
2022-03-22 16:26:00,,0828.8,5.00,0.00,21.5,20.8,00.0,30.7,23.0,08.4,0000.0,0001.75,0000.70,0000.43
2022-03-22 16:27:00,,0828.8,5.00,0.00,21.5,20.7,00.0,30.7,23.0,08.4,0000.0,0001.70,0000.68,0000.42
2022-03-22 16:28:00,,0828.6,5.00,0.00,21.4,20.7,00.0,30.7,22.9,08.6,0000.0,0001.75,0000.68,0000.43
2022-03-22 16:29:00,,0828.6,5.00,0.00,21.4,20.6,00.0,30.6,22.9,08.7,0000.0,0001.79,0000.69,0000.42
2022-03-22 16:30:00,,0828.8,5.01,0.00,21.4,21.3,00.0,30.7,23.1,08.5,0000.0,0001.55,0000.67,0000.42
2022-03-22 16:31:00,,0828.8,5.01,0.00,21.6,22.4,00.0,30.7,23.5,08.7,0000.0,0001.53,0000.70,0000.44
2022-03-22 16:32:00,,0828.7,4.99,0.00,21.8,23.3,00.0,30.7,23.8,08.8,0000.0,0001.47,0000.68,0000.44
2022-03-22 16:33:00,,0828.7,4.99,0.00,21.9,23.0,00.0,30.8,23.8,08.4,0000.0,0001.45,0000.65,0000.43
2022-03-22 16:34:00,,0828.6,5.01,0.00,21.9,22.6,00.0,30.8,23.6,08.5,0000.0,0001.51,0000.67,0000.43
2022-03-22 16:35:00,,0828.8,4.99,0.00,21.8,22.2,00.0,30.8,23.5,08.5,0000.0,0002.08,0000.69,0000.44
2022-03-22 16:36:00,,0828.9,5.00,0.00,21.8,21.9,00.0,30.8,23.4,08.3,0000.0,0002.14,0000.72,0000.45
2022-03-22 16:37:00,,0828.6,5.01,0.00,21.7,21.6,00.0,30.8,23.3,08.4,0000.0,0002.08,0000.72,0000.46
2022-03-22 16:38:00,,0828.4,4.99,0.00,21.7,21.4,00.0,30.8,23.3,08.6,0000.0,0002.07,0000.74,0000.46
2022-03-22 16:39:00,,0828.5,5.00,0.00,21.6,21.2,00.0,30.8,23.2,08.6,0000.0,0002.06,0000.75,0000.47
2022-03-22 16:40:00,,0828.5,5.00,0.00,21.6,21.1,00.0,30.7,23.1,08.6,0000.0,0002.06,0000.76,0000.48
2022-03-22 16:41:00,,0828.4,5.00,0.00,21.5,20.9,00.0,30.7,23.0,08.5,0000.0,0002.01,0000.75,0000.48
2022-03-22 16:42:00,,0828.4,5.01,0.00,21.5,20.8,00.0,30.7,23.0,08.6,0000.0,0001.98,0000.73,0000.47
2022-03-22 16:43:00,,0828.4,5.00,0.00,21.5,20.7,00.0,30.7,23.0,08.7,0000.0,0002.04,0000.73,0000.47
2022-03-22 16:44:00,,0828.4,5.00,0.00,21.4,20.7,00.0,30.7,22.9,08.8,0000.0,0002.02,0000.73,0000.46
2022-03-22 16:45:00,,0828.4,5.00,0.00,21.4,20.6,00.0,30.6,22.8,08.7,0000.0,0001.96,0000.73,0000.46
2022-03-22 16:46:00,,0828.4,4.99,0.00,21.3,20.7,00.0,30.6,22.9,08.7,0000.0,0001.48,0000.70,0000.45
2022-03-22 16:47:00,,0828.4,5.00,0.00,21.5,21.8,00.0,30.6,23.2,08.7,0000.0,0001.28,0000.67,0000.45
2022-03-22 16:48:00,,0828.4,5.00,0.00,21.6,22.8,00.0,30.7,23.6,08.6,0000.0,0001.25,0000.66,0000.44
2022-03-22 16:49:00,,0828.2,5.01,0.00,21.8,23.0,00.0,30.7,23.7,08.6,0000.0,0001.23,0000.65,0000.43
2022-03-22 16:50:00,,0828.4,4.98,0.00,21.8,22.5,00.0,30.7,23.5,08.5,0000.0,0001.55,0000.65,0000.43
2022-03-22 16:51:00,,0828.4,5.00,0.00,21.7,22.1,00.0,30.7,23.4,08.8,0000.0,0002.06,0000.62,0000.43
2022-03-22 16:52:00,,0828.4,4.99,0.00,21.7,21.8,00.0,30.7,23.3,09.0,0000.0,0002.03,0000.62,0000.43
2022-03-22 16:53:00,,0828.4,5.01,0.00,21.6,21.6,00.0,30.7,23.2,08.9,0000.0,0002.01,0000.61,0000.43
2022-03-22 16:54:00,,0828.4,5.01,0.00,21.6,21.4,00.0,30.7,23.1,08.8,0000.0,0001.90,0000.58,0000.43
2022-03-22 16:55:00,,0828.4,5.00,0.00,21.6,21.2,00.0,30.7,23.1,08.6,0000.0,0001.90,0000.58,0000.42
2022-03-22 16:56:00,,0828.3,4.99,0.00,21.5,21.0,00.0,30.7,23.0,08.4,0000.0,0001.89,0000.56,0000.43
2022-03-22 16:57:00,,0828.2,5.01,0.00,21.5,20.9,00.0,30.7,23.0,08.2,0000.0,0001.86,0000.55,0000.42
2022-03-22 16:58:00,,0828.4,5.00,0.00,21.4,20.8,00.0,30.6,23.0,08.1,0000.0,0001.89,0000.57,0000.42
2022-03-22 16:59:00,,0828.3,5.00,0.00,21.4,20.7,00.0,30.6,22.9,08.6,0000.0,0001.91,0000.58,0000.42
